SCP
0 0 0 0 0 0 0 0 0 0 0 0 0 0 0 0 0 0 0 0 0 0 0 0 0 0 0 0 0 0 0 0 0 0 0 0 0 0 0 0 0 0 0 0
0 0 0 0 0 0 0 0 0 0 0 0 0 0 0 0 0 0 0 0 0 0 0 0 0 0 0 0 0 0 0 0 0 0 0 0 0 0 0 0 0 0 0 0
0 0 0 0 0 0 0 0 0 0 0 0 0 0 0 0 0 0 0 0 0 0 0 0 0 0 0 0 0 0 0 0 0 0 0 0 0 0 0 0 0 0 0 0
0 0 0 0 0 0 0 0 0 0 0 0 0 0 0 0 0 0 0 0 0 0 0 0 0 0 0 0 0 0 0 0 0 0 0 0 0 0 0 0 0 0 0 0
0 0 0 0 0 0 0 0 0 0 0 0 0 0 0 0 0 0 0 0 0 0 0 0 0 0 0 0 0 0 0 0 0 0 0 0 0 0 0 0 0 0 0 0
0 0 0 0 0 0 0 0 0 0 0 0 0 0 0 0 0 0 0 0 0 0 0 0 0 0 0 0 0 0 0 0 0 0 0 0 0 0 0 0 0 0 0 0
0 0 0 0 0 0 0 0 0 0 0 0 0 0 0 0 0 0 0 0 0 0 0 0 0 0 0 0 0 0 0 0 0 0 0 0 0 0 0 0 0 0 0 0
0 0 0 0 0 0 0 0 0 0 0 0 0 0 0 0 0 0 0 0 0 0 0 0 0 0 0 0 0 0 0 0 0 0 0 0 0 0 0 0 0 0 0 0
0 0 0 0 0 0 0 0 0 0 0 0 0 0 0 0 0 0 0 0 0 0 0 0 0 0 0 0 0 0 0 0 0 0 0 0 0 0 0 0 0 0 0 0
0 0 0 0 0 0 0 0 0 0 0 0 0 0 0 0 0 -0 -0 0 0 0 0 0 0 0 0 0 0 0 0 0 0 0 0 0 0 0 0 0 0 0 0 0
0 0 0 0 0 0 0 0 0 0 0 0 0 0 0 0 0 0 0 0 0 0 0 0 0 0 0 0 0 0 0 0 0 0 0 0 0 0 0 0 0 0 0 0
0 0 0 0 0 0 0 0 0 0 0 0 0 0 0 0 0 0 0 0 0 0 0 0 0 0 0 0 0 0 0 0 0 0 0 0 0 0 0 0 0 0 0 0
0 0 0 0 0 0 0 0 0 0 0 0 0 0 0 0 0 0 0 0 0 0 0 0 0 0 0 0 0 0 0 0 0 0 0 0 0 0 0 0 0 0 0 0
0 0 0 0 0 0 0 0 0 0 0 0 0 0 0 0 0 0 0 0 0 0 0 0 0 0 0 0 0 0 0 0 0 0 0 0 0 0 0 0 0 0 0 0
0 0 0 0 0 0 0 0 0 0 0 0 0 0 0 0 0 -0 0 0 0 0 0 0 0 0 0 0 0 0 0 0 0 0 0 0 0 0 0 0 0 0 0 0
0 0 0 0 0 0 0 0 0 0 0 0 0 0 0 0 0 0 0 0 0 0 0 0 0 0 0 0 0 0 0 0 0 0 0 0 0 0 0 0 0 0 0 0
0 0 0 0 0 0 0 0 0 0 0 0 0 0 0 0 0 0 0 0 0 0 0 0 0 0 0 0 0 0 0 0 0 0 0 0 0 0 0 0 0 0 0 0
0 0 0 0 0 0 0 0 0 0 0 0 0 0 0 0 0 0 0 0 0 0 0 0 0 0 0 0 0 0 0 0 0 0 0 0 0 0 0 0 0 0 0 0
0 0 0 0 0 0 0 0 0 0 0 0 0 0 0 0 0 0 0 0 0 0 0 0 0 0 0 0 0 0 0 0 0 0 0 0 0 0 0 0 0 0 0 0
0 0 0 0 0 0 0 0 0 0 0 0 0 0 0 0 0 0 0 0 0 0 0 0 0 0 0 0 0 0 0 0 0 0 0 0 0 0 0 0 0 0 0 0
0 0 0 0 0 0 0 0 0 0 0 0 0 0 0 0 0 0 0 0 0 0 0 0 0 0 0 0 0 0 0 0 0 0 0 0 0 0 0 0 0 0 0 0
0 0 0 0 0 0 0 0 0 0 0 0 0 0 0 0 0 0 0 0 0 0 0 0 0 0 0 0 0 0 0 0 0 0 0 0 0 0 0 0 0 0 0 0
0 0 0 0 0 0 0 0 0 0 0 0 0 0 0 0 0 0 0 0 0 0 0 0 0 0 0 0 0 0 0 0 0 0 0 0 0 0 0 0 0 0 0 0
0 0 0 0 0 0 0 0 0 0 0 0 0 0 0 0 0 0 0 0 0 0 0 0 0 0 0 0 0 0 0 0 0 0 0 0 0 0 0 0 0 0 0 0
0 0 0 0 0 0 0 0 0 0 0 0 0 0 0 0 0 0 0 0 0 0 0 0 0 0 0 0 0 0 0 0 0 0 0 0 0 0 0 0 0 0 0 0
0 0 0 0 0 0 0 0 0 0 0 0 0 0 0 0 0 0 0 0 0 0 0 0 0 0 0 0 0 0 0 0 0 0 0 0 0 0 0 0 0 0 0 0
Wind_Speed
13 14 19 23 25 20 18 20 20 17 12 16 20 21 19 16 15 17 18 18 18 18 17 16 16 17 17 17 19 20 20 19 16 13 12 12 12 11 10 10 12 13 13 13
12 22 24 22 22 21 20 20 19 13 10 13 16 21 20 19 19 18 19 19 19 18 16 15 15 16 18 19 20 20 20 20 19 15 14 12 12 10 10 9 11 13 14 14
22 17 19 21 22 23 22 22 19 13 9 11 11 18 21 19 19 19 19 19 19 18 18 17 16 17 18 19 21 18 21 21 20 18 12 10 9 8 9 11 11 14 15 14
20 19 18 21 24 24 22 20 17 13 11 9 12 13 17 17 18 20 21 20 20 19 18 17 16 17 18 19 18 20 20 20 20 19 16 17 14 13 15 12 11 13 15 15
15 17 20 23 24 23 17 13 15 15 13 11 12 13 13 13 18 20 20 21 20 19 18 17 17 16 17 17 17 18 19 20 20 20 20 19 16 14 11 12 13 13 13 15
16 14 18 19 19 18 11 9 7 9 10 15 19 16 14 14 18 17 17 18 17 17 16 16 15 14 14 14 15 16 18 19 20 20 20 20 20 17 15 15 13 12 10 12
13 15 13 12 13 15 15 12 8 10 12 14 15 17 15 13 14 16 16 16 16 15 14 14 15 14 14 15 16 16 18 19 19 20 20 20 20 19 18 16 15 13 11 11
10 13 16 12 16 14 19 19 13 10 12 11 12 18 13 12 13 14 15 14 12 13 13 14 14 14 14 15 16 17 18 19 19 19 19 19 19 14 13 15 13 13 11 12
8 10 11 15 15 15 17 18 14 9 7 10 11 11 11 9 13 15 16 15 14 14 13 13 13 13 13 14 15 17 18 18 18 19 19 18 18 16 15 15 14 11 11 10
6 7 7 10 10 17 15 13 10 10 10 12 13 16 11 13 18 18 18 17 16 14 13 13 12 12 11 11 13 14 16 17 17 17 16 13 16 16 15 13 14 13 13 12
4 5 5 8 13 16 14 15 10 9 10 11 11 11 9 13 15 17 18 16 15 14 13 12 11 10 10 10 11 12 14 14 15 16 16 15 15 15 14 13 14 13 12 12
3 4 6 10 8 11 14 16 15 12 11 13 12 7 4 7 8 9 10 9 9 10 9 9 9 9 9 10 11 12 12 13 14 14 14 14 14 14 14 13 13 12 12 12
3 4 4 5 5 5 10 14 17 15 10 11 14 10 4 3 4 5 6 6 6 7 7 8 9 9 10 10 10 11 12 12 12 13 13 13 13 13 13 13 12 11 11 11
5 5 6 7 4 5 9 14 16 16 13 14 17 14 7 6 5 5 5 5 6 6 7 8 8 9 9 9 10 10 11 11 12 12 13 13 13 13 12 12 11 11 11 10
3 5 7 9 8 8 11 14 17 20 20 18 18 18 14 9 7 5 3 4 5 6 7 8 8 9 9 9 9 9 10 11 11 12 12 12 11 11 11 11 10 10 10 9
3 5 7 9 8 9 13 16 19 22 23 23 20 19 13 9 6 6 6 5 6 7 7 7 8 9 9 9 9 9 10 10 11 12 11 11 11 11 11 10 10 10 9 9
4 4 5 6 7 7 12 16 19 20 23 24 23 19 10 11 11 10 9 8 9 8 7 8 9 9 9 9 10 10 10 10 11 11 11 11 11 11 11 10 10 10 10 9
8 6 5 5 5 11 7 7 13 17 19 19 18 13 12 14 14 13 11 10 10 9 8 8 8 8 8 8 9 9 10 11 11 11 11 11 11 11 11 11 10 10 9 8
14 8 5 5 7 9 8 7 10 14 13 12 14 14 13 12 12 14 12 11 11 10 9 9 9 8 8 9 10 10 10 10 11 11 11 12 12 12 12 11 11 9 8 8
12 11 7 6 8 9 5 3 5 9 11 7 9 11 11 10 13 13 9 10 11 9 7 7 7 8 8 9 10 11 11 11 12 12 12 11 12 12 12 11 10 8 8 7
7 9 11 10 9 9 5 4 3 9 5 4 7 8 9 11 13 11 9 9 9 9 7 6 7 8 9 10 12 12 11 12 11 11 11 11 11 11 11 10 9 9 8 8
6 6 8 8 10 9 1 0 4 4 6 6 6 7 9 12 12 11 10 9 7 7 6 6 7 8 8 11 12 12 12 10 10 11 11 11 11 9 9 10 9 9 9 8
8 6 4 7 8 5 4 7 7 7 8 8 8 9 10 10 11 10 10 9 7 7 6 6 7 8 8 10 12 13 11 12 12 12 12 11 11 10 10 10 10 9 8 7
7 7 9 10 12 11 11 11 10 9 10 11 11 11 11 11 11 11 10 9 7 6 6 6 7 9 9 10 10 10 12 13 13 13 12 11 11 10 9 7 7 7 7 7
10 7 9 14 14 13 11 10 11 12 13 13 13 12 11 11 11 11 10 9 7 5 5 6 8 9 10 10 10 10 12 14 14 13 12 11 10 10 9 7 5 6 5 6
13 13 13 13 12 12 14 13 14 14 14 14 14 14 13 11 11 10 9 8 6 5 5 6 7 8 9 10 11 11 12 14 15 13 12 9 9 8 8 8 7 7 6 7
Wind_Direction
199 207 210 208 212 224 221 221 223 223 212 214 227 235 234 226 223 230 230 228 226 227 226 217 211 206 202 200 200 199 197 197 193 192 193 194 198 199 200 201 202 201 201 200
207 219 219 216 215 221 225 225 226 227 218 224 236 241 240 235 230 231 232 231 229 228 224 214 206 202 201 200 200 200 199 196 195 195 195 198 199 200 201 199 204 203 203 202
218 223 215 214 212 215 220 221 219 216 205 223 244 247 237 233 231 232 233 233 232 227 225 216 207 203 201 202 200 198 198 197 197 195 192 190 192 194 197 200 202 204 203 203
227 226 216 214 214 211 220 219 220 214 211 217 220 250 234 226 225 227 229 229 230 228 227 223 214 206 203 203 199 199 198 197 196 193 193 191 194 197 201 199 200 201 203 204
221 214 212 217 216 211 218 209 216 219 227 237 224 245 245 218 227 226 226 227 227 226 225 222 217 210 205 200 196 197 197 197 195 195 197 197 202 205 201 198 200 200 200 204
234 222 217 221 222 215 195 182 203 220 225 236 224 230 249 218 224 224 222 223 223 222 221 221 217 210 203 196 193 194 196 197 195 196 198 201 203 203 198 197 197 196 196 201
231 221 212 213 208 204 190 176 186 197 209 229 213 223 243 230 223 226 225 221 221 220 218 215 210 203 199 193 192 193 195 196 195 196 200 202 204 204 203 199 200 196 195 198
219 217 205 204 207 196 197 195 201 203 209 214 201 226 238 228 223 227 232 231 226 221 215 211 208 202 198 193 191 192 194 195 194 196 200 202 203 203 205 205 202 200 200 201
223 231 213 210 208 200 198 207 219 237 239 226 212 232 244 231 225 224 225 225 225 219 212 210 206 202 197 192 191 192 192 193 193 195 197 200 201 203 205 204 205 205 204 201
241 242 226 210 205 211 209 196 196 209 208 222 223 227 226 204 213 215 218 219 220 216 211 208 203 197 193 191 189 191 192 192 192 193 195 197 199 202 203 202 203 204 203 199
261 243 225 203 200 196 197 199 199 207 229 228 230 230 216 215 210 212 215 213 212 207 203 200 197 191 185 182 184 186 188 189 190 192 193 195 197 199 201 202 203 203 202 198
277 258 239 225 227 217 206 201 199 201 205 223 237 234 156 215 220 217 216 210 209 204 198 193 186 180 177 179 181 183 185 187 188 188 190 193 194 194 197 199 200 199 199 197
288 255 244 207 200 202 209 208 209 217 220 218 221 221 152 214 226 224 223 211 199 191 184 180 177 179 179 178 179 181 183 184 183 183 186 188 191 192 194 196 195 194 194 193
289 245 244 240 244 224 227 221 217 215 219 223 226 231 218 228 236 233 218 204 191 184 182 180 178 180 178 178 178 179 181 180 178 180 183 187 189 190 190 190 190 189 188 187
295 259 258 269 269 233 235 230 224 221 222 227 230 236 235 233 236 230 210 183 186 185 187 188 185 181 179 177 177 178 177 176 175 178 181 185 183 182 183 184 184 182 182 183
293 275 275 268 260 248 244 232 226 228 228 233 238 240 237 241 241 233 224 203 205 203 199 196 192 186 185 184 179 176 176 174 175 177 179 177 176 176 177 177 176 174 175 176
256 269 273 266 260 260 244 223 219 224 228 229 234 237 237 235 230 229 228 225 221 218 210 203 200 196 191 189 181 178 175 169 173 175 174 173 173 173 173 169 169 172 175 174
234 246 257 266 246 233 242 223 225 230 234 234 241 247 239 239 243 242 238 239 241 234 221 215 208 202 195 187 180 172 166 169 171 171 172 171 170 170 167 168 171 172 172 173
215 219 238 243 244 254 261 244 224 225 235 240 242 245 247 253 260 249 240 244 244 240 233 222 211 202 189 181 173 165 166 169 170 174 173 171 169 167 167 169 170 168 166 167
201 209 230 238 242 241 248 272 257 225 238 247 248 251 254 240 241 246 248 243 249 250 239 222 206 195 188 178 167 167 170 173 179 177 172 168 167 167 167 167 164 160 159 158
188 202 221 237 245 259 290 307 219 202 235 285 256 256 252 241 248 272 270 250 245 246 238 218 200 195 189 174 168 173 174 181 176 165 161 161 163 163 161 157 156 154 150 149
223 213 211 221 232 243 358 214 215 281 312 307 287 268 262 261 268 275 272 264 250 241 232 213 199 193 182 176 173 175 179 170 158 156 156 156 157 152 152 151 151 152 152 151
228 230 236 233 249 293 277 261 279 298 300 303 305 296 284 278 275 276 276 267 254 241 228 211 197 186 182 181 179 176 168 157 155 153 153 151 149 150 153 152 152 152 156 155
248 244 250 259 258 270 278 277 282 290 297 300 300 299 294 284 282 277 274 267 257 244 225 206 190 185 184 180 180 170 157 156 154 153 151 150 148 147 148 147 152 155 159 159
257 255 256 262 271 282 271 271 284 291 294 298 300 295 290 285 282 277 272 263 253 240 221 203 195 187 180 172 167 159 157 156 153 150 148 148 147 145 143 140 142 152 156 165
245 244 247 257 268 275 283 289 291 291 290 291 294 294 291 282 279 275 269 258 245 230 214 202 194 181 172 166 160 160 160 158 152 149 150 150 148 145 142 137 118 87 111 118